Regional Weather Roundup
Issued by NWS

Home | Current Version | Previous Version | Text Only | Print | Product List | Glossary Off
Versions: 1 2 3 4 5 6 7 8 9 10 11 12 13 14 15 16 17 18 19 20 21 22 23 24 25 26 27 28 29 30 31 32 33 34 35 36 37 38 39 40 41 42 43 44 45 46 47 48 49 50

000
ASUS43 KMKX 211021
RWRWI

WISCONSIN REGIONAL WEATHER ROUNDUP
NATIONAL WEATHER SERVICE MILWAUKEE/SULLIVAN WI
500 AM CDT TUE APR 21 2015

NOTE: "FAIR" INDICATES FEW OR NO CLOUDS BELOW 12,000 FEET WITH NO
SIGNIFICANT WEATHER AND/OR OBSTRUCTIONS TO VISIBILITY.

WIZ001-002-006>008-014>016-023>028-211100-
NORTHWEST WISCONSIN

CITY           SKY/WX    TMP DP  RH WIND       PRES   REMARKS
SUPERIOR ARPT  CLOUDY    34  28  78 W15       29.40S WCI  24
ASHLAND        CLOUDY    32  30  92 W12       29.36R WCI  23
HAYWARD        LGT SNOW  31  28  89 VRB7      29.40R FOG     WCI  24
SIREN          FLURRIES  32  28  83 NW16G22   29.45S WCI  21
CUMBERLAND     LGT SNOW  32  30  93 W15       29.44R WCI  22
RICE LAKE      LGT SNOW  32  30  92 W10       29.46R WCI  24
CHETEK         LGT SNOW  32  30  92 W9        29.44S WCI  24
LADYSMITH      LGT SNOW  33  32  94 W9        29.42S WCI  26
EAU CLAIRE     CLOUDY    34  29  82 W12       29.47R WCI  25
MENOMONIE      CLOUDY    35  30  82 W12       29.48S WCI  26
NEW RICHMOND   CLOUDY    34  26  74 W14G22    29.48S WCI  25
OSCEOLA        CLOUDY    35  27  73 NW17      29.51S WCI  25
$$

WIZ003>005-009-010-017-018-211100-
NORTH CENTRAL WISCONSIN

CITY           SKY/WX    TMP DP  RH WIND       PRES   REMARKS
MANITOWISH WTR LGT SNOW  31  30  97 W13G21    29.30S WCI  21
ARBOR VITAE    LGT SNOW  32  30  93 W9G17     29.31S WCI  24
WOODRUFF       LGT SNOW  32  30  93 W9G17     29.31S WCI  24
RHINELANDER    LGT SNOW  32  29  88 W15       29.33S FOG     WCI  22
EAGLE RIVER    LGT SNOW  32  31  95 W10G17    29.29S WCI  23
LAND O LAKES   LGT SNOW  32  31  96 W6        29.29S WCI  26
PHILLIPS       FLURRIES  32  28  88 W7        29.35S WCI  25
TOMAHAWK       FLURRIES  32  29  88 W7        29.36S WCI  25
MEDFORD        LGT SNOW  31  30  94 W14       29.38F WCI  21
MERRILL        CLOUDY    33  31  91 W13       29.37S WCI  24
$$

WIZ029-030-035-036-043>047-211100-
CENTRAL WISCONSIN

CITY           SKY/WX    TMP DP  RH WIND       PRES   REMARKS
WAUSAU         LGT SNOW  33  29  85 W16G25    29.38R FOG     WCI  23
MOSINEE        FLURRIES  32  32 100 W12G18    29.41S WCI  23
MARSHFIELD     LGT SNOW  33  30  88 W14G22    29.42S FOG     WCI  23
STEVENS POINT  MIX PCPN  32  30  92 W13       29.42S WCI  22
WAUPACA        DRIZZLE   38  32  81 W15G21    29.43S WCI  29
WAUTOMA        MIX PCPN  36  34  93 W12       29.46S WCI  27
WISC RAPIDS    FLURRIES  34  30  85 W13       29.45S WCI  25
CAMP DOUGLAS   FLURRIES  34  34 100 SW8       29.47F WCI  27
$$

WIZ011>013-019>022-031-037>040-048>050-211100-
NORTHEAST WISCONSIN

CITY           SKY/WX    TMP DP  RH WIND       PRES   REMARKS
ANTIGO         LGT SNOW  32  31  95 W13       29.35S WCI  22
SHAWANO        CLOUDY    37  32  82 W8        29.40S WCI  31
OCONTO         CLOUDY    36  31  82 W9        29.38S WCI  29
STURGEON BAY   CLOUDY    37  28  70 W14       29.39F WCI  29
GREEN BAY      CLOUDY    38  31  76 W13       29.41S WCI  30
MANITOWOC      CLOUDY    37  34  87 W9        29.43R WCI  31
APPLETON       CLOUDY    36  30  80 W10       29.42F WCI  28
CLINTONVILLE   CLOUDY    36  30  80 W9        29.40F WCI  29
OSHKOSH        CLOUDY    36  31  82 W12G18    29.44S WCI  28
$$

WIZ032>034-041-042-053>061-211100-
SOUTHWEST WISCONSIN

CITY           SKY/WX    TMP DP  RH WIND       PRES   REMARKS
LA CROSSE      CLOUDY    39  30  70 W21       29.52F WCI  29
SPARTA         CLOUDY    36  29  78 W7G16     29.50S WCI  30
VIROQUA        CLOUDY    34  32  90 W12       29.51S WCI  26
BOSCOBEL       CLOUDY    41  29  62 SW8       29.55F
PRAIRIE DU CHI CLOUDY    40  28  61 W20G29    29.57S WCI  31
PLATTEVILLE    CLOUDY    38  32  77 W16G23    29.57S WCI  29
$$

WIZ056-057-062-063-064-067-068-211100-
SOUTH CENTRAL WISCONSIN

CITY           SKY/WX    TMP DP  RH WIND       PRES   REMARKS
REEDSBURG      LGT RAIN  34  32  93 W10G17    29.50S WCI  26
BARABOO/DELLS  MIX PCPN  35  31  87 W9        29.49F WCI  28
LONE ROCK      CLOUDY    39  29  67 W13G29    29.53S WCI  31
MINERAL POINT  CLOUDY    37  32  81 W20       29.53F WCI  27
MADISON        MOCLDY    39  28  64 W8G16     29.51R WCI  33
MIDDLETON      MOCLDY    39  28  64 W17G25    29.51S WCI  30
WATERTOWN      CLOUDY    38  30  71 W15       29.49S WCI  29
MONROE         PTCLDY    36  32  87 W21       29.54F WCI  24
JANESVILLE     PTCLDY    37  30  75 W15G24    29.54F WCI  28
$$

WIZ051-052-058>065-066-070>072-211100-
SOUTHEAST WISCONSIN

CITY           SKY/WX    TMP DP  RH WIND       PRES   REMARKS
MILWAUKEE      MOCLDY    39  29  67 SW17      29.51S WCI  30
WAUKESHA       CLOUDY    36  30  80 SW14G21   29.50S WCI  27
MILWAUKEE/TIMM CLOUDY    37  30  75 SW13G23   29.50S WCI  29
RACINE         PTCLDY    39  29  67 W10G20    29.53F WCI  32
BURLINGTON     MOCLDY    36  29  77 SW13G22   29.52F WCI  28
KENOSHA        FAIR      38  30  73 W15       29.53F WCI  29
FOND DU LAC    LGT SNOW  34  31  88 SW8       29.46S FOG     WCI  27
SHEBOYGAN      CLOUDY    38  31  76 W12       29.44F WCI  30
WEST BEND      CLOUDY    37  30  75 W14       29.46F WCI  29
JUNEAU         CLOUDY    37  31  81 SW18      29.49S WCI  27
$$

LSZ147-162-211100-
LAKE SUPERIOR

STATION/POSITION TIME  TEMP    WIND        PRES    WAVE
                       AIR SEA DIR/SP/G            HT/PER
                 (UTC) (F)     (DEG/KT/KT) (MB)    (FT/S)
DEVILS ISLAND    1000   35     270/ 22/ 28  993.1R
PORT WING        0940   35     270/ 18/ 23  994.9R
SAXON HARBOR     0940   33     240/  8/ 12  993.6R
$$

LMZ867-665-643>646-211100-
LAKE MICHIGAN

STATION/POSITION TIME  TEMP    WIND        PRES    WAVE
                       AIR SEA DIR/SP/G            HT/PER
                 (UTC) (F)     (DEG/KT/KT) (MB)    (FT/S)
CHAMBERS ISLAND  0900   38     220/  8/ 13  994.9S
NORTHPORT PIER   0900   38     230/  4/ 11  994.6S
SISTER BAY       0932   39     250/ 17/ 19   N/A
KEWAUNEE LAKESHO 0900   39     250/  6/ 11  995.3F
SHEBOYGAN LAKESH 1000   40     240/ 14/ 19  997.7F
PORT WASHINGTON  0940   41     260/ 10/ 17  999.0F
MILWAUKEE LAKESH 1000   40     250/ 17/ 23   N/A
KENOSHA   LAKESH 1000   40     250/ 14/ 19 1000.3F
$$

TC  - TEMPERATURE IN CELSIUS
VSB - VISIBILITY IN STATUTE MILES
WCI - WIND CHILL INDEX
HX  - HEAT INDEX




USA.gov is the U.S. government's official web portal to all federal, state and local government web resources and services.